Regional Weather Roundup
Issued by NWS

Home | Current Version | Previous Version | Text Only | Print | Product List | Glossary Off
Versions: 1 2 3 4 5 6 7 8 9 10 11 12 13 14 15 16 17 18 19 20 21 22 23 24 25 26 27 28 29 30 31 32 33 34 35 36 37 38 39 40 41 42 43 44 45 46 47 48 49 50

000
ASUS43 KLSX 300110
RWRMO

WEATHER SUMMARY FOR MISSOURI
NATIONAL WEATHER SERVICE SPRINGFIELD MO
800 PM CDT FRI APR 29 2016

NOTE: "FAIR" INDICATES FEW OR NO CLOUDS BELOW 12,000 FEET WITH NO
       SIGNIFICANT WEATHER AND/OR OBSTRUCTIONS TO VISIBILITY.
       CURRENT SKY AND/OR WEATHER CONDITIONS ARE NOT AVAILABLE FOR
       CHILLICOTHE AND FARMINGTON.

MOZ001>031-035>038-043-044-053-054-300200-
...NORTHERN AND WESTERN MISSOURI...

CITY           SKY/WX    TMP DP  RH WIND       PRES   REMARKS
KANSAS CTY INT CLOUDY    51  48  89 NE20      29.81F
KANSAS C DTWN  CLOUDY    54  50  86 E21G29    29.80F
LEE`S SUMMIT   CLOUDY    53  51  93 NE24G33   29.80F
ST JOSEPH      CLOUDY    51  48  89 E17G25    29.87F
CHILLICOTHE      N/A     51  49  92 NE16      29.91F
KIRKSVILLE     LGT RAIN  51  46  83 NE9       30.02R

$$
MOZ066>068-077>081-088>096-101>105-300200-
...SOUTHWEST MISSOURI...

CITY           SKY/WX    TMP DP  RH WIND       PRES   REMARKS
SPRINGFIELD    RAIN      60  57  89 E8        29.80R FOG
JOPLIN         HVY RAIN  59  58  96 N8        29.80R FOG
BRANSON        LGT RAIN  57  57 100 E12G20    29.79R VSB 1/8

$$
MOZ032>034-039>042-045>050-055>058-069>072-300200-
...CENTRAL MISSOURI...

CITY           SKY/WX    TMP DP  RH WIND       PRES   REMARKS
COLUMBIA       LGT RAIN  60  52  74 NE14      29.93R
JEFFERSON CITY LGT RAIN  61  52  72 NE8       29.92R
ROLLA          CLOUDY    59  52  77 E12       29.87F
SEDALIA        LGT RAIN  58  54  86 E16G24    29.84F
WHITEMAN AFB   CLOUDY    55  55 100 NE8       29.84F
WARRENSBURG    DRIZZLE   54  52  94 NE15      29.84F
OSAGE BEACH    CLOUDY    57  46  67 NE8G16    29.89F THUNDER

$$
MOZ051-052-059>065-300200-
...EAST CENTRAL MISSOURI...

CITY           SKY/WX    TMP DP  RH WIND       PRES   REMARKS
ST LOUIS INTL  CLOUDY    63  52  67 E10       29.97S
SPIRIT OF STL  CLOUDY    62  54  74 E10       29.94F
ST CHARLES     CLOUDY    62  54  74 E12       29.97R

$$
MOZ072>076-082>087-097>100-106>115-300200-
...SOUTH CENTRAL AND SOUTHEAST MISSOURI...

CITY           SKY/WX    TMP DP  RH WIND       PRES   REMARKS
CAPE GIRARDEAU CLOUDY    60  57  89 NE10      29.91F
FARMINGTON     LGT RAIN  60  55  83 E8        29.93F
POPLAR BLUFF   CLOUDY    62  58  86 NE8       29.88F
WEST PLAINS    CLOUDY    60  56  86 SE10G18   29.86R

$$




USA.gov is the U.S. government's official web portal to all federal, state and local government web resources and services.